TimeEDT,TemperatureF,Dew PointF,Humidity,Sea Level PressureIn,VisibilityMPH,Wind Direction,Wind SpeedMPH,Gust SpeedMPH,PrecipitationIn,Events,Conditions,WindDirDegrees,DateUTC
12:53 AM,63.0,46.9,56,30.16,10.0,WNW,5.8,-,N/A,,Clear,290,2013-05-26 04:53:00
1:53 AM,57.9,46.0,65,30.17,10.0,North,5.8,-,N/A,,Clear,350,2013-05-26 05:53:00
2:53 AM,55.0,46.9,74,30.17,10.0,NNE,5.8,-,N/A,,Clear,20,2013-05-26 06:53:00
3:53 AM,57.9,43.0,58,30.16,10.0,North,10.4,-,N/A,,Clear,10,2013-05-26 07:53:00
4:53 AM,57.9,39.0,49,30.17,10.0,North,10.4,-,N/A,,Clear,350,2013-05-26 08:53:00
5:53 AM,57.9,39.0,49,30.19,10.0,North,10.4,-,N/A,,Overcast,360,2013-05-26 09:53:00
6:53 AM,57.9,39.9,51,30.21,10.0,North,6.9,-,N/A,,Mostly Cloudy,10,2013-05-26 10:53:00
7:53 AM,60.1,39.9,47,30.23,10.0,North,9.2,-,N/A,,Mostly Cloudy,360,2013-05-26 11:53:00
8:53 AM,60.1,39.9,47,30.26,10.0,North,8.1,-,N/A,,Overcast,10,2013-05-26 12:53:00
9:53 AM,62.1,41.0,46,30.26,10.0,NE,4.6,-,N/A,,Overcast,40,2013-05-26 13:53:00
10:53 AM,64.0,42.1,45,30.26,10.0,NNE,8.1,-,N/A,,Overcast,20,2013-05-26 14:53:00
11:53 AM,68.0,41.0,37,30.25,10.0,Variable,6.9,-,N/A,,Mostly Cloudy,0,2013-05-26 15:53:00
12:53 PM,69.1,43.0,39,30.23,10.0,Variable,4.6,-,N/A,,Overcast,0,2013-05-26 16:53:00
1:53 PM,68.0,42.1,39,30.22,10.0,Variable,3.5,-,N/A,,Overcast,0,2013-05-26 17:53:00
2:53 PM,70.0,39.9,33,30.20,10.0,Calm,Calm,-,N/A,,Overcast,0,2013-05-26 18:53:00
3:53 PM,73.0,39.9,30,30.18,10.0,Calm,Calm,-,N/A,,Partly Cloudy,0,2013-05-26 19:53:00
4:53 PM,75.0,42.1,31,30.16,10.0,West,6.9,-,N/A,,Clear,260,2013-05-26 20:53:00
5:53 PM,75.9,42.1,30,30.17,10.0,Variable,6.9,-,N/A,,Clear,0,2013-05-26 21:53:00
6:53 PM,75.0,41.0,29,30.17,10.0,NW,6.9,-,N/A,,Clear,310,2013-05-26 22:53:00
7:53 PM,72.0,45.0,38,30.18,10.0,North,3.5,-,N/A,,Clear,350,2013-05-26 23:53:00
8:53 PM,66.9,46.0,47,30.19,10.0,NNE,3.5,-,N/A,,Clear,20,2013-05-27 00:53:00
9:53 PM,64.0,50.0,60,30.20,10.0,Calm,Calm,-,N/A,,Clear,0,2013-05-27 01:53:00
10:53 PM,62.1,48.9,62,30.22,10.0,Calm,Calm,-,N/A,,Clear,0,2013-05-27 02:53:00
11:53 PM,59.0,50.0,72,30.21,10.0,South,3.5,-,N/A,,Clear,170,2013-05-27 03:53:00